Location: Caltech
(34.1382°N, 118.1253°W)
Time: 06:50:05
(UTC-07:00)

UOSAT-12 - Visible Passes

Search period start: 27 June 2017 00:00
Search period end: 07 July 2017 00:00
Orbit: 602 x 652 km, 64.6° (Epoch: 26 June)

Date Brightness Start Highest point End Pass type
(mag) Time Alt. Az. Time Alt. Az. Time Alt. Az.
27 Jun 8.6 22:15:59 10° N 22:19:49 25° NE 22:20:42 23° ENE visible
27 Jun 9.1 23:55:46 10° NW 23:57:58 23° WNW 23:57:58 23° WNW visible
28 Jun 7.4 22:35:13 10° NNW 22:39:49 54° ENE 22:39:56 53° ENE visible
29 Jun 9.9 00:17:10 10° WNW 00:17:13 10° W 00:17:13 10° W visible
29 Jun 9.3 21:16:35 10° NNE 21:19:06 14° NE 21:21:37 10° E visible
29 Jun 7.4 22:54:59 10° NW 22:59:12 61° W 22:59:12 61° W visible
30 Jun 8.4 21:35:11 10° N 21:39:16 29° NE 21:41:15 21° E visible
30 Jun 8.8 23:15:20 10° NW 23:18:33 25° W 23:18:33 25° W visible
01 Jul 7.2 21:54:33 10° NNW 21:59:13 65° ENE 22:00:38 42° ESE visible
01 Jul 9.8 23:37:30 10° W 23:37:56 11° W 23:37:56 11° W visible
02 Jul 9.1 20:35:36 10° N 20:38:35 17° NE 20:41:33 10° E visible
02 Jul 7.6 22:14:26 10° NW 22:18:59 53° WSW 22:20:05 42° SSW visible
03 Jul 8.1 20:54:25 10° N 20:58:41 34° NE 21:02:17 13° ESE visible
03 Jul 8.9 22:34:58 10° WNW 22:38:34 22° WSW 22:39:35 21° SW visible
04 Jul 7.1 21:13:54 10° NNW 21:18:36 78° ENE 21:21:51 20° SE visible
05 Jul 8.0 21:33:53 10° NW 21:38:19 43° WSW 21:41:29 18° S visible
06 Jul 9.4 21:54:40 10° WNW 21:57:53 19° WSW 22:01:04 10° SSW visible
